[[{"header":{"parameterUnit":"m.s-1","parameterCategory":1,"la1":30.2991,"la2":30.254,"lo1":-89.0895,"lo2":-89.0444,"dy":0.0017,"dx":0.0017,"nx":28,"ny":28,"refTime":"2024-05-04T03:00:00:Z","depth":0,"parameterNumber":2,"parameterNumberName":"U-component_of_WINDS"},"data":[0,0,0,0,0,0,0,0,0,0,0,0,0,0,0,0,0,0,0,0,0,0,0,0,0,0,0,0,0,0,0,0,0,0,0,0,0,0,0,0,0,0,0,0,0,0,0,0,0,0,0,0,0,0,0,0,0,0,-2.7014,-2.7013,0,-2.6963,-2.6962,-2.6962,-2.6872,-2.687,-2.6868,-2.6867,-2.6815,-2.6816,-2.6816,0,0,0,0,0,0,0,0,0,0,0,0,0,-2.7036,-2.7036,-2.7014,-2.7013,-2.7013,-2.6963,-2.6962,-2.6962,-2.6872,-2.687,-2.6868,-2.6866,-2.6815,-2.6815,-2.6816,0,0,0,0,0,0,0,0,0,0,0,0,0,-2.701,-2.7036,-2.7014,-2.6962,-2.6957,-2.6963,-2.6962,-2.6961,-2.6872,-2.687,-2.6867,-2.6865,-2.6815,-2.6815,-2.6816,-2.6869,0,0,-2.6817,-2.6817,0,0,0,0,0,0,0,0,-2.7012,-2.7009,-2.697,-2.6966,-2.696,-2.6921,-2.6951,-2.693,-2.6873,-2.6905,-2.6867,-2.6864,-2.6853,-2.685,-2.6846,-2.6867,-2.6864,-2.6817,-2.6817,-2.6817,-2.6817,0,0,0,0,0,0,0,-2.7014,-2.7011,-2.6994,-2.697,-2.6963,-2.6942,-2.6935,-2.6947,-2.6894,-2.6902,-2.6895,-2.689,-2.6849,-2.6846,-2.6844,-2.6864,-2.6817,-2.6817,-2.6817,-2.6817,-2.6927,-2.693,0,0,0,0,0,0,-2.7023,-2.7013,-2.6995,-2.6992,-2.698,-2.6944,-2.6936,-2.6936,-2.6893,-2.6884,-2.6892,-2.6886,-2.6846,-2.6844,-2.6842,-2.6901,-2.6817,-2.6817,-2.6818,-2.6924,-2.6928,-2.693,0,0,0,0,0,0,-2.7024,-2.7022,-2.6997,-2.7001,-2.6996,-2.6946,-2.6946,-2.6936,-2.6933,-2.6886,-2.6876,-2.6898,-2.6844,-2.6841,-2.6863,-2.6898,-2.6818,-2.6818,-2.6921,-2.6925,-2.6929,-2.702,0,0,0,0,0,0,-2.7025,-2.7023,-2.7042,-2.7002,-2.6996,-2.7019,-2.6949,-2.6937,-2.6933,-2.6925,-2.6889,-2.6881,-2.6842,-2.6863,-2.6863,-2.6897,-2.6818,-2.6918,-2.6923,-2.6928,-2.7014,-2.7027,-2.7038,0,0,0,0,0,-2.7026,-2.7069,-2.7043,-2.7041,-2.7019,-2.7021,-2.7018,-2.6972,-2.6937,-2.6955,-2.6926,-2.6882,-2.6895,-2.6866,-2.6866,-2.69,-2.6915,-2.6921,-2.6927,-2.7009,-2.7025,-2.7038,0,0,0,0,0,0,-2.7114,-2.7063,-2.7033,-2.7065,-2.7049,-2.7006,-2.7028,-2.699,-2.6983,-2.6975,-2.6919,-2.6912,-2.6942,-2.6923,-2.6892,-2.695,-2.6898,-2.6905,-2.696,-2.6975,-2.6987,-2.699,-2.6818,0,0,0,0,0,-2.7138,-2.7143,-2.7099,-2.7132,-2.7125,-2.7079,-2.7078,-2.7044,-2.7024,-2.7017,-2.6988,-2.6971,-2.6972,-2.6973,-2.697,-2.7012,-2.7003,-2.7036,-2.7048,-2.7058,-2.7064,-2.7085,-2.7099,-2.695,-2.695,-2.695,0,0,-2.7186,-2.7159,-2.7165,-2.7149,-2.7131,-2.7139,-2.7073,-2.7083,-2.7089,-2.7018,-2.7036,-2.7016,-2.6994,-2.7026,-2.7039,-2.7011,-2.7103,-2.7066,-2.7075,-2.7074,-2.7093,-2.7107,-2.7119,-2.6955,-2.6954,-2.6953,0,0,-2.7277,-2.7257,-2.7282,-2.7267,-2.7242,-2.7211,-2.7218,-2.7182,-2.7165,-2.7183,-2.7131,-2.7137,-2.7139,-2.7125,-2.7118,-2.7207,-2.7166,-2.7209,-2.7271,-2.7292,-2.7304,-2.7314,-2.7345,-2.7357,-2.7215,-2.7215,-2.7215,0,-2.7339,-2.7348,-2.73,-2.7314,-2.7309,-2.7246,-2.7272,-2.726,-2.7236,-2.7233,-2.7204,-2.7205,-2.7186,-2.7214,-2.7236,-2.7233,-2.7239,-2.7211,-2.7306,-2.7316,-2.7325,-2.7354,-2.7366,-2.722,-2.7219,-2.7219,-2.7218,0,-2.7426,-2.7433,-2.7457,-2.7435,-2.7433,-2.7453,-2.7409,-2.7412,-2.7381,-2.7354,-2.7374,-2.7349,-2.734,-2.7345,-2.7314,-2.737,-2.7354,-2.7316,-2.7263,-2.7345,-2.7371,-2.7382,-2.7227,-2.7225,-2.7224,-2.7223,0,0,-2.7568,-2.7521,-2.753,-2.752,-2.749,-2.7495,-2.7514,-2.7505,-2.7509,-2.7497,-2.751,-2.7515,-2.748,-2.7473,-2.744,-2.7459,-2.7531,-2.7419,-2.7418,-2.744,-2.7591,-2.7618,-2.7632,-2.7506,-2.7507,-2.7509,-2.7593,0,-2.7651,-2.7678,-2.7636,-2.7673,-2.768,-2.7623,-2.7639,-2.7622,-2.7599,-2.7602,-2.7576,-2.7579,-2.7534,-2.7529,-2.7546,-2.7519,-2.7561,-2.7513,-2.7517,-2.7518,-2.7522,-2.7646,-2.7674,-2.7754,-2.7603,-2.7605,-2.7606,0,-2.775,-2.7742,-2.7779,-2.7748,-2.7749,-2.7764,-2.7754,-2.7758,-2.7739,-2.7721,-2.7714,-2.7676,-2.7693,-2.7643,-2.7666,-2.7634,-2.7634,-2.7622,-2.7624,-2.762,-2.7565,-2.7644,-2.7778,-2.779,-2.7622,-2.7621,-2.762,0,-2.7848,-2.7847,-2.7869,-2.7863,-2.7827,-2.7839,-2.7825,-2.7803,-2.7802,-2.7794,-2.7793,-2.7788,-2.7784,-2.7782,-2.7744,-2.7711,-2.7771,-2.7718,-2.7756,-2.7757,-2.7769,-2.7768,-2.7903,-2.7773,-2.7773,-2.7772,-2.7772,0,-2.7943,-2.7968,-2.7913,-2.7926,-2.7953,-2.7907,-2.7935,-2.7915,-2.7898,-2.7907,-2.7859,-2.7869,-2.7819,-2.7824,-2.7794,-2.7818,-2.7817,-2.7803,-2.7794,-2.7806,-2.7807,-2.7803,-2.7796,-2.7775,-2.7775,-2.7774,-2.7774,0,-2.8056,-2.802,-2.804,-2.8006,-2.7998,-2.8019,-2.799,-2.8002,-2.7976,-2.7989,-2.799,-2.795,-2.7953,-2.7916,-2.7913,-2.7893,-2.7929,-2.7912,-2.7935,-2.7929,-2.7968,-2.7965,-2.8103,-2.8119,-2.7981,-2.7983,-2.7984,0,-2.8118,-2.8136,-2.8104,-2.8107,-2.8095,-2.81,-2.8099,-2.8055,-2.8056,-2.8038,-2.8052,-2.8052,-2.8049,-2.8058,-2.8029,-2.8027,-2.8008,-2.8057,-2.8007,-2.8019,-2.8007,-2.8006,-2.8007,-2.8067,-2.8068,-2.807,-2.8071,0,-2.8231,-2.8213,-2.8213,-2.8207,-2.8207,-2.82,-2.819,-2.8196,-2.8149,-2.8152,-2.8155,-2.8154,-2.8151,-2.8152,-2.8144,-2.813,-2.8093,-2.8088,-2.8096,-2.8106,-2.8119,-2.8111,-2.7962,-2.8084,-2.8082,-2.8081,-2.8081,-2.808,-2.8319,-2.8333,-2.8313,-2.8314,-2.8303,-2.8295,-2.8305,-2.8282,-2.8283,-2.8277,-2.8253,-2.8261,-2.8244,-2.823,-2.822,-2.8226,-2.8203,-2.8215,-2.8218,-2.8221,-2.8227,-2.812,-2.8225,-2.8225,-2.8224,-2.8224,-2.8224,0,-2.8429,-2.8414,-2.8416,-2.8404,-2.8406,-2.8372,-2.8361,-2.8364,-2.8372,-2.8359,-2.8358,-2.8363,-2.8364,-2.8337,-2.8335,-2.8345,-2.8328,-2.8346,-2.8344,-2.8341,-2.8249,-2.8242,-2.836,-2.836,-2.836,-2.836,-2.836,-2.836,-2.8486,-2.8507,-2.8487,-2.8503,-2.8488,-2.8495,-2.8491,-2.8485,-2.8475,-2.8482,-2.8483,-2.8465,-2.8447,-2.8444,-2.8444,-2.8436,-2.8437,-2.846,-2.8447,-2.8361,-2.8348,-2.8335,-2.8327,-2.8461,-2.8462,-2.8537,-2.8538,-2.8539]},{"header":{"parameterUnit":"m.s-1","parameterCategory":1,"la1":30.2991,"la2":30.254,"lo1":-89.0895,"lo2":-89.0444,"dy":0.0017,"dx":0.0017,"nx":28,"ny":28,"refTime":"2024-05-04T03:00:00:Z","depth":0,"parameterNumber":3,"parameterNumberName":"V-component_of_WINDS"},"data":[0,0,0,0,0,0,0,0,0,0,0,0,0,0,0,0,0,0,0,0,0,0,0,0,0,0,0,0,0,0,0,0,0,0,0,0,0,0,0,0,0,0,0,0,0,0,0,0,0,0,0,0,0,0,0,0,0,0,1.6688,1.6688,0,1.6694,1.6694,1.6694,1.6683,1.6682,1.6682,1.6682,1.6688,1.6689,1.6689,0,0,0,0,0,0,0,0,0,0,0,0,0,1.6667,1.6668,1.6687,1.6688,1.6688,1.6694,1.6694,1.6694,1.6683,1.6682,1.6682,1.6682,1.6688,1.6689,1.6689,0,0,0,0,0,0,0,0,0,0,0,0,0,1.6675,1.6668,1.6687,1.6683,1.6683,1.6694,1.6694,1.6694,1.6683,1.6682,1.6682,1.6681,1.6688,1.6689,1.6689,1.6705,0,0,1.6692,1.6692,0,0,0,0,0,0,0,0,1.6675,1.6676,1.6683,1.6683,1.6683,1.6687,1.6689,1.6698,1.6683,1.6683,1.6682,1.6681,1.6688,1.6689,1.6691,1.6706,1.6706,1.6692,1.6692,1.6693,1.6693,0,0,0,0,0,0,0,1.6674,1.6675,1.669,1.6684,1.6683,1.6681,1.6681,1.6691,1.6689,1.6683,1.6682,1.6683,1.6688,1.6691,1.6691,1.6706,1.6692,1.6693,1.6693,1.6693,1.6734,1.6735,0,0,0,0,0,0,1.6674,1.6675,1.669,1.669,1.6677,1.6682,1.6682,1.6686,1.6688,1.6688,1.6683,1.6682,1.669,1.6691,1.6692,1.671,1.6693,1.6693,1.6694,1.6733,1.6734,1.6735,0,0,0,0,0,0,1.6674,1.6675,1.6689,1.6682,1.6684,1.6683,1.6687,1.6687,1.6689,1.6689,1.6689,1.6686,1.6689,1.6691,1.6702,1.671,1.6694,1.6694,1.6733,1.6734,1.6734,1.6748,0,0,0,0,0,0,1.6673,1.6675,1.6681,1.6683,1.6684,1.6699,1.6688,1.6687,1.669,1.6689,1.6692,1.6691,1.6689,1.6701,1.6703,1.6711,1.6695,1.6732,1.6733,1.6734,1.6746,1.6749,1.6751,0,0,0,0,0,1.6672,1.6684,1.6681,1.6683,1.6691,1.67,1.6701,1.6698,1.6691,1.6697,1.6697,1.6691,1.6709,1.6702,1.6704,1.6713,1.6731,1.6733,1.6734,1.6745,1.6748,1.6751,0,0,0,0,0,0,1.6684,1.6684,1.6681,1.6694,1.6697,1.6698,1.6705,1.6701,1.6706,1.6705,1.6701,1.6701,1.6714,1.6715,1.6707,1.6729,1.6719,1.6721,1.6727,1.673,1.6732,1.6731,1.6696,0,0,0,0,0,1.6688,1.6694,1.6695,1.6706,1.6708,1.6707,1.671,1.6707,1.671,1.6712,1.6712,1.6716,1.6722,1.6726,1.6732,1.6747,1.6747,1.6754,1.6756,1.6758,1.6759,1.6767,1.677,1.6739,1.6739,1.6739,0,0,1.6696,1.6697,1.6702,1.6709,1.6711,1.6718,1.6708,1.6716,1.6721,1.6713,1.6723,1.6724,1.6728,1.6741,1.6747,1.6742,1.6768,1.676,1.6761,1.6762,1.6769,1.6772,1.6775,1.674,1.674,1.674,0,0,1.6715,1.6716,1.6726,1.6729,1.6732,1.6731,1.6733,1.6735,1.6735,1.6746,1.6741,1.6747,1.6758,1.6761,1.6764,1.6785,1.678,1.6787,1.6798,1.6806,1.6809,1.6811,1.6818,1.6821,1.6789,1.6789,1.6789,0,1.6724,1.6735,1.6732,1.674,1.6743,1.6737,1.6747,1.6749,1.6754,1.6757,1.6752,1.6766,1.6768,1.6782,1.6787,1.679,1.6792,1.6786,1.6809,1.6811,1.6813,1.6819,1.6822,1.6789,1.6789,1.6789,1.6789,0,1.6746,1.6754,1.6761,1.6766,1.6771,1.678,1.6778,1.6783,1.6781,1.6781,1.6792,1.6794,1.6801,1.6804,1.6801,1.6818,1.6814,1.6809,1.68,1.6816,1.6823,1.6825,1.6791,1.679,1.679,1.679,0,0,1.6771,1.6775,1.6778,1.678,1.6784,1.6789,1.6799,1.6805,1.6809,1.6813,1.6821,1.6831,1.6826,1.683,1.6828,1.6835,1.6851,1.6828,1.6828,1.6832,1.6869,1.6872,1.6875,1.6848,1.6848,1.6849,1.6868,0,1.6789,1.6804,1.6802,1.6817,1.6824,1.6819,1.6827,1.683,1.6831,1.6837,1.6837,1.6844,1.6838,1.684,1.6847,1.6847,1.6858,1.6846,1.6855,1.6855,1.6853,1.6878,1.6882,1.6899,1.687,1.6871,1.6871,0,1.6811,1.6817,1.6832,1.6835,1.6838,1.6845,1.6851,1.6857,1.6861,1.6861,1.6865,1.6862,1.6872,1.6863,1.6876,1.6868,1.6872,1.6873,1.6874,1.6874,1.6863,1.6878,1.6905,1.6908,1.6875,1.6875,1.6875,0,1.6827,1.6838,1.6849,1.6851,1.6855,1.686,1.6862,1.6866,1.687,1.6875,1.6878,1.6884,1.6888,1.6893,1.6892,1.6886,1.6906,1.6897,1.6906,1.6906,1.6909,1.6909,1.6936,1.6913,1.6913,1.6913,1.6913,0,1.6847,1.6856,1.6856,1.6862,1.6873,1.6871,1.6882,1.6883,1.6887,1.6894,1.689,1.6897,1.6895,1.6902,1.6902,1.6913,1.6914,1.6915,1.6914,1.6914,1.6914,1.6916,1.6914,1.6914,1.6913,1.6913,1.6913,0,1.6865,1.6865,1.6877,1.688,1.6881,1.6889,1.6892,1.6898,1.6899,1.6907,1.6909,1.691,1.6918,1.6918,1.6927,1.6927,1.694,1.6939,1.6939,1.6938,1.6947,1.6946,1.6976,1.698,1.6954,1.6955,1.6955,0,1.6877,1.6885,1.6889,1.6893,1.6895,1.6903,1.6907,1.6906,1.691,1.6916,1.6922,1.6929,1.6935,1.6948,1.695,1.6957,1.6955,1.6965,1.6956,1.6956,1.6955,1.6954,1.6955,1.6967,1.6967,1.6967,1.6967,0,1.6899,1.6898,1.6905,1.6911,1.6916,1.6921,1.6926,1.693,1.6929,1.6935,1.6943,1.6947,1.6957,1.6964,1.6971,1.6974,1.6971,1.6971,1.6973,1.6973,1.6972,1.6972,1.6943,1.697,1.6969,1.6969,1.6969,1.6969,1.6914,1.692,1.6924,1.6931,1.6935,1.6939,1.6946,1.6947,1.6954,1.6961,1.6961,1.697,1.6974,1.6983,1.6986,1.6994,1.699,1.6993,1.6994,1.6995,1.6996,1.6972,1.6995,1.6995,1.6995,1.6995,1.6995,0,1.6934,1.6937,1.6944,1.695,1.6956,1.6953,1.6958,1.6963,1.6971,1.6976,1.6982,1.6991,1.6999,1.7002,1.7009,1.7014,1.7013,1.7016,1.7016,1.7016,1.6999,1.6995,1.7017,1.7017,1.7017,1.7017,1.7017,1.7017,1.6946,1.6956,1.6957,1.6969,1.6972,1.698,1.6984,1.6988,1.6992,1.7002,1.7009,1.701,1.7014,1.7022,1.7029,1.703,1.7033,1.7036,1.7036,1.702,1.7017,1.7015,1.7012,1.7037,1.7037,1.7053,1.7053,1.7054]}]]